Weather History for Wolf Point, MT

Change the Weather History Date:

Tuesday, March 19, 2013

  Actual Average Record
Temperature  
Mean Temperature 8 °F -  
Max Temperature 19 °F 45 °F 64 °F (2001)
Min Temperature -3 °F 19 °F -3 °F (2013)
Degree Days  
Heating Degree Days 57    
Cooling Degree Days 0    
Moisture  
Dew Point 1 °F    
Average Humidity 74    
Maximum Humidity 85    
Minimum Humidity 60    
Precipitation  
Precipitation 0.00 in 0.01 in 0.09 in (2011)
Month to date precipitation 0.40 0.23  
Year to date precipitation 0.60 0.75  
Sea Level Pressure  
Sea Level Pressure 30.39 in    
Wind  
Wind Speed 5 mph (WNW)    
Max Wind Speed 14 mph    
Max Gust Speed 18 mph    
Visibility 10 miles    
Events      
T = Trace of Precipitation, MM = Missing Value Source: NWS Daily Summary

Daily Weather History Graph

Daily Weather History Graph

Search for Another Location

Airport:

Trip Planner

Search our weather history database for the weather conditions in past years. The results will help you decide how hot, cold, wet, or windy it might be!

Date:

Astronomy

Mar. 19, 2013 Rise Set
Actual Time 7:06 AM MDT 7:14 PM MDT
Civil Twilight 6:35 AM MDT 7:45 PM MDT
Nautical Twilight 5:59 AM MDT 8:21 PM MDT
Astronomical Twilight 5:21 AM MDT 8:59 PM MDT
Moon 11:34 AM MDT (3/19) 2:28 AM MDT (3/19)
Length of Visible Light 13h 09m
Length of Day
12h 07m
Waxing Crescent, 50% of the Moon is Illuminated
Mar 19
Waxing Crescent
Mar 27
Full
Apr 2
Last Quarter
Apr 10
New
Apr 18
First Quarter

Hourly Weather History & Observations

Time (MDT) Temp. Windchill Dew Point Humidity Pressure Visibility Wind Dir Wind Speed Gust Speed Precip Events Conditions
12:53 AM 1.9 °F -5.6 °F -2.0 °F 83% 30.12 in 10.0 mi West 3.5 mph - N/A   Clear
1:53 AM 12.9 °F -2.2 °F 7.0 °F 77% 30.14 in 10.0 mi NNW 13.8 mph 18.4 mph N/A   Clear
2:53 AM 9.0 °F -0.9 °F 5.0 °F 84% 30.18 in 10.0 mi WSW 5.8 mph - N/A   Clear
3:53 AM 9.0 °F - 3.9 °F 80% 30.23 in 10.0 mi Calm Calm - N/A   Clear
4:35 AM 8.6 °F -4.7 °F 1.4 °F 73% 30.14 in 10.0 mi North 9.2 mph - N/A   Mostly Cloudy
4:53 AM 8.1 °F -4.3 °F 1.0 °F 73% 30.28 in 10.0 mi West 8.1 mph - N/A   Overcast
5:03 AM 5.0 °F -8.1 °F -0.4 °F 78% 30.16 in 10.0 mi NW 8.1 mph - N/A   Overcast
5:22 AM 1.4 °F -11.3 °F -2.2 °F 85% 30.17 in 10.0 mi West 6.9 mph - N/A   Scattered Clouds
5:53 AM 1.9 °F -9.2 °F -2.9 °F 80% 30.32 in 10.0 mi West 5.8 mph - N/A   Clear
6:53 AM -2.0 °F -15.4 °F -7.1 °F 79% 30.36 in 10.0 mi WNW 6.9 mph - N/A   Clear
7:53 AM -2.0 °F -12.2 °F -8.0 °F 76% 30.41 in 10.0 mi WNW 4.6 mph - N/A   Clear
8:53 AM 3.0 °F -8.0 °F -5.1 °F 69% 30.44 in 10.0 mi West 5.8 mph - N/A   Clear
9:53 AM 5.0 °F -2.1 °F -2.9 °F 70% 30.47 in 10.0 mi West 3.5 mph - N/A   Clear
10:53 AM 8.1 °F -3.2 °F -0.0 °F 70% 30.49 in 10.0 mi WNW 6.9 mph - N/A   Clear
11:53 AM 10.0 °F -1.9 °F 1.9 °F 70% 30.51 in 10.0 mi WSW 8.1 mph - N/A   Clear
12:53 PM 12.0 °F 0.5 °F 1.9 °F 64% 30.52 in 10.0 mi WNW 8.1 mph - N/A   Clear
1:53 PM 14.0 °F 3.9 °F 5.0 °F 67% 30.50 in 10.0 mi West 6.9 mph - N/A   Clear
2:53 PM 15.1 °F 9.4 °F 5.0 °F 64% 30.50 in 10.0 mi WSW 3.5 mph - N/A   Clear
3:53 PM 16.0 °F 8.8 °F 6.1 °F 65% 30.50 in 10.0 mi West 4.6 mph - N/A   Clear
4:53 PM 17.1 °F - 6.1 °F 62% 30.51 in 10.0 mi Calm Calm - N/A   Clear
5:53 PM 17.1 °F - 6.1 °F 62% 30.51 in 10.0 mi Calm Calm - N/A   Clear
6:53 PM 18.0 °F - 6.1 °F 60% 30.51 in 10.0 mi Calm Calm - N/A   Clear
7:53 PM 9.0 °F - 1.9 °F 73% 30.51 in 10.0 mi Calm Calm - N/A   Clear
8:53 PM 6.1 °F -0.9 °F -0.0 °F 76% 30.50 in 10.0 mi NNE 3.5 mph - N/A   Clear
9:53 PM 1.9 °F - -2.9 °F 80% 30.50 in 10.0 mi Calm Calm - N/A   Clear
10:53 PM -0.0 °F - -4.0 °F 83% 30.49 in 10.0 mi Calm Calm - N/A   Clear
11:53 PM -0.9 °F - -5.1 °F 83% 30.47 in 10.0 mi Calm Calm - N/A   Clear